Regional Weather Roundup
Issued by NWS

Home | Current Version | Previous Version | Graphics & Text | Print | Product List | Glossary On
Versions: 1 2 3 4 5 6 7 8 9 10 11 12 13 14 15 16 17 18 19 20 21 22 23 24 25 26 27
000
ASUS45 KBOI 200910
RWRID
WEATHER ROUNDUP FOR IDAHO
NATIONAL WEATHER SERVICE BOISE ID
300 AM MDT SUN APR 20 2014

NOTE: "FAIR" INDICATES FEW OR NO CLOUDS BELOW 12000 FEET
WITH NO SIGNIFICANT WEATHER AND/OR OBSTRUCTIONS TO VISIBILITY

IDZ012-014-201000-
SOUTHWEST IDAHO


CITY           SKY/WX    TMP DP  RH WIND       PRES   REMARKS
BOISE          PTCLDY    51  31  46 NW16G25   30.12R
CALDWELL       PTCLDY    50  28  43 N6        30.17R
MOUNTAIN HOME  PTCLDY    51  29  42 NW16      30.10R
$$

IDZ016-017-201000-
SOUTHCENTRAL IDAHO


CITY           SKY/WX    TMP DP  RH WIND       PRES   REMARKS
BURLEY         PTCLDY    51  30  44 W22G36    30.03R
JEROME         PTCLDY    50  29  44 SW21G31   30.07R
TWIN FALLS     PTCLDY    49  29  46 S16       30.10R
$$

IDZ019>023-201000-
SOUTHEAST IDAHO


CITY           SKY/WX    TMP DP  RH WIND       PRES   REMARKS
IDAHO FALLS    MOCLDY    46  32  58 SW8       29.98R
POCATELLO      CLEAR     54  26  34 SW24G35   30.01R
REXBURG        MOCLDY    51  30  44 S12       29.97S
$$

IDZ006-010-011-018-031-032-201000-
CENTRAL IDAHO MOUNTAINS


CITY           SKY/WX    TMP DP  RH WIND       PRES   REMARKS
MCCALL         CLEAR     38  27  64 NW5       30.12R WCI  34
HAILEY         PTCLDY    43  25  49 NW14      30.04R
STANLEY          N/A     37  23  56 S3        30.09R
SALMON         CLOUDY    52  27  37 N18G24    30.02R
CHALLIS        CLOUDY    43  19  38 CALM      30.01R
$$

IDZ002-004-006-007-026-201000-
NORTHERN IDAHO


CITY           SKY/WX    TMP DP  RH WIND       PRES   REMARKS
LEWISTON       PTCLDY    50  29  44 W10       30.18R
LOWELL           N/A     45  43  93 CALM      30.21R
COEUR D`ALENE  CLOUDY    43  34  70 S10G16    30.11R
MULLAN PASS    LGT SNOW  28  27  93 VRB5G16   30.05R FOG     WCI  23
$$



USA.gov is the U.S. government's official web portal to all federal, state and local government web resources and services.